Weather History for Edenton, NC

Change the Weather History Date:

Friday, May 3, 2013

  Actual Average Record
Temperature  
Mean Temperature 58 °F -  
Max Temperature 67 °F 76 °F 90 °F (1938)
Min Temperature 48 °F 54 °F 40 °F (1937)
Degree Days  
Heating Degree Days 8    
Growing Degree Days 8 (Base 50)    
Moisture  
Dew Point 49 °F    
Average Humidity 79    
Maximum Humidity 100    
Minimum Humidity 50    
Precipitation  
Precipitation 0.00 in - - ()
Sea Level Pressure  
Sea Level Pressure 30.25 in    
Wind  
Wind Speed 9 mph (NE)    
Max Wind Speed 21 mph    
Max Gust Speed 31 mph    
Visibility 9 miles    
Events      
Averages and records for this station are not official NWS values.
T = Trace of Precipitation, MM = Missing Value Source: NWS Daily Summary

Daily Weather History Graph

Daily Weather History Graph

Search for Another Location

Airport:

Trip Planner

Search our weather history database for the weather conditions in past years. The results will help you decide how hot, cold, wet, or windy it might be!

Date:

Astronomy

May. 03, 2013 Rise Set
Actual Time 6:11 AM EDT 7:55 PM EDT
Civil Twilight 5:43 AM EDT 8:23 PM EDT
Nautical Twilight 5:10 AM EDT 8:56 PM EDT
Astronomical Twilight 4:34 AM EDT 9:32 PM EDT
Moon 2:22 AM EDT (5/3) 1:58 PM EDT (5/3)
Length of Visible Light 14h 39m
Length of Day
13h 44m
Last Quarter, 37% of the Moon is Illuminated
May 3
Last Quarter
May 9
New
May 18
First Quarter
May 25
Full
May 31
Last Quarter

Hourly Weather History & Observations

Time (EDT) Temp. Dew Point Humidity Pressure Visibility Wind Dir Wind Speed Gust Speed Precip Events Conditions
12:15 AM 51.6 °F 50.0 °F 94% 30.27 in 10.0 mi NNE 4.6 mph - N/A   Clear
12:35 AM 51.1 °F 50.7 °F 99% 30.27 in 10.0 mi NNE 3.5 mph - N/A   Clear
12:55 AM 50.5 °F 50.5 °F 100% 30.26 in 10.0 mi North 3.5 mph - N/A   Clear
1:15 AM 50.0 °F 50.0 °F 100% 30.25 in 7.0 mi NNE 4.6 mph - N/A   Clear
1:55 AM 49.6 °F 49.6 °F 100% 30.24 in 7.0 mi NNE 4.6 mph - N/A   Clear
2:15 AM 49.5 °F 49.5 °F 100% 30.23 in 7.0 mi NNE 4.6 mph - N/A   Clear
2:35 AM 49.5 °F 49.5 °F 100% 30.22 in 7.0 mi North 5.8 mph - N/A   Clear
2:55 AM 49.6 °F 49.6 °F 100% 30.23 in 7.0 mi North 6.9 mph - N/A   Clear
3:15 AM 49.6 °F 49.6 °F 100% 30.22 in 7.0 mi NNE 5.8 mph - N/A   Clear
3:35 AM 49.3 °F 49.3 °F 100% 30.22 in 5.0 mi NNE 5.8 mph - N/A   Clear
3:55 AM 49.3 °F 49.3 °F 100% 30.22 in 7.0 mi North 6.9 mph - N/A   Clear
4:15 AM 48.9 °F 48.9 °F 100% 30.22 in 5.0 mi NNE 5.8 mph - N/A   Clear
4:35 AM 48.7 °F 48.7 °F 100% 30.22 in 5.0 mi NNE 4.6 mph - N/A   Clear
4:55 AM 48.7 °F 48.7 °F 100% 30.22 in 7.0 mi NNE 5.8 mph - N/A   Clear
5:15 AM 49.1 °F 49.1 °F 100% 30.22 in 7.0 mi NNE 4.6 mph - N/A   Clear
5:35 AM 49.1 °F 49.1 °F 100% 30.22 in 7.0 mi North 5.8 mph - N/A   Clear
5:55 AM 49.3 °F 49.3 °F 100% 30.22 in 7.0 mi NNE 5.8 mph - N/A   Clear
6:15 AM 50.4 °F 50.4 °F 100% 30.23 in 5.0 mi NE 9.2 mph - N/A   Clear
6:35 AM 51.3 °F 51.3 °F 100% 30.23 in 7.0 mi NE 6.9 mph - N/A   Clear
6:55 AM 52.7 °F 52.7 °F 100% 30.23 in 7.0 mi NE 9.2 mph 17.3 mph N/A   Clear
7:15 AM 53.6 °F 53.6 °F 100% 30.24 in 7.0 mi ENE 8.1 mph - N/A   Clear
7:35 AM 54.9 °F 54.9 °F 100% 30.24 in 10.0 mi NE 10.4 mph - N/A   Clear
7:55 AM 56.3 °F 55.6 °F 97% 30.24 in 10.0 mi NE 9.2 mph - N/A   Clear
8:15 AM 57.4 °F 56.3 °F 96% 30.24 in 10.0 mi NE 10.4 mph 18.4 mph N/A   Clear
8:35 AM 59.4 °F 57.2 °F 93% 30.24 in 10.0 mi ENE 13.8 mph 20.7 mph N/A   Clear
8:55 AM 60.6 °F 58.5 °F 93% 30.25 in 10.0 mi ENE 12.7 mph 20.7 mph N/A   Clear
9:15 AM 61.0 °F 57.0 °F 87% 30.25 in 10.0 mi ENE 16.1 mph 23.0 mph N/A   Clear
9:35 AM 62.4 °F 55.4 °F 78% 30.25 in 10.0 mi East 15.0 mph 25.3 mph N/A   Scattered Clouds
10:15 AM 63.7 °F 52.0 °F 66% 30.26 in 10.0 mi East 15.0 mph 27.6 mph N/A   Scattered Clouds
10:55 AM 64.9 °F 51.4 °F 62% 30.28 in 10.0 mi East 15.0 mph 25.3 mph N/A   Scattered Clouds
11:15 AM 64.6 °F 51.6 °F 63% 30.28 in 10.0 mi ENE 20.7 mph 26.5 mph N/A   Clear
11:35 AM 65.1 °F 50.9 °F 60% 30.28 in 10.0 mi ENE 16.1 mph 24.2 mph N/A   Clear
11:55 AM 65.3 °F 50.5 °F 59% 30.28 in 10.0 mi ENE 19.6 mph 27.6 mph N/A   Clear
12:15 PM 66.7 °F 50.9 °F 57% 30.27 in 10.0 mi East 16.1 mph 27.6 mph N/A   Clear
12:35 PM 66.4 °F 49.1 °F 54% 30.27 in 10.0 mi East 16.1 mph 24.2 mph N/A   Clear
12:55 PM 66.4 °F 46.9 °F 50% 30.26 in 10.0 mi NE 15.0 mph 25.3 mph N/A   Clear
1:15 PM 67.1 °F 49.6 °F 53% 30.27 in 10.0 mi ENE 16.1 mph 24.2 mph N/A   Clear
1:35 PM 65.3 °F 49.1 °F 56% 30.27 in 10.0 mi East 13.8 mph 23.0 mph N/A   Clear
1:55 PM 65.5 °F 50.2 °F 58% 30.27 in 10.0 mi East 17.3 mph 23.0 mph N/A   Clear
2:15 PM 64.4 °F 48.4 °F 56% 30.26 in 10.0 mi East 16.1 mph 25.3 mph N/A   Scattered Clouds
2:35 PM 64.0 °F 47.5 °F 55% 30.26 in 10.0 mi ENE 18.4 mph 26.5 mph N/A   Scattered Clouds
2:55 PM 64.0 °F 46.8 °F 53% 30.25 in 10.0 mi NE 16.1 mph 27.6 mph N/A   Clear
3:15 PM 63.3 °F 45.7 °F 53% 30.25 in 10.0 mi East 17.3 mph 29.9 mph N/A   Clear
3:35 PM 63.0 °F 46.2 °F 54% 30.24 in 10.0 mi ENE 15.0 mph 26.5 mph N/A   Scattered Clouds
3:55 PM 63.0 °F 46.0 °F 54% 30.24 in 10.0 mi ENE 20.7 mph 28.8 mph N/A   Scattered Clouds
4:15 PM 60.6 °F 45.7 °F 58% 30.25 in 10.0 mi East 13.8 mph 31.1 mph N/A   Mostly Cloudy
4:35 PM 61.9 °F 44.1 °F 52% 30.24 in 10.0 mi ENE 19.6 mph 26.5 mph N/A   Scattered Clouds
4:55 PM 60.1 °F 43.7 °F 55% 30.24 in 10.0 mi ENE 17.3 mph 28.8 mph N/A   Scattered Clouds
5:15 PM 59.5 °F 43.7 °F 56% 30.24 in 10.0 mi ENE 17.3 mph 27.6 mph N/A   Scattered Clouds
5:35 PM 59.2 °F 43.5 °F 56% 30.24 in 10.0 mi ENE 17.3 mph 27.6 mph N/A   Clear
5:55 PM 59.5 °F 44.4 °F 57% 30.25 in 10.0 mi East 11.5 mph 21.9 mph N/A   Scattered Clouds
6:15 PM 58.5 °F 44.2 °F 59% 30.25 in 10.0 mi ENE 16.1 mph 24.2 mph N/A   Scattered Clouds
6:35 PM 57.6 °F 45.1 °F 63% 30.24 in 10.0 mi ENE 10.4 mph 21.9 mph N/A   Scattered Clouds
6:55 PM 56.1 °F 45.9 °F 68% 30.25 in 10.0 mi NE 11.5 mph 20.7 mph N/A   Scattered Clouds
7:15 PM 54.7 °F 46.0 °F 73% 30.25 in 10.0 mi ENE 12.7 mph 19.6 mph N/A   Scattered Clouds
7:35 PM 53.8 °F 46.2 °F 76% 30.25 in 10.0 mi NE 10.4 mph 17.3 mph N/A   Scattered Clouds
7:55 PM 53.1 °F 46.0 °F 77% 30.25 in 10.0 mi NE 5.8 mph 17.3 mph N/A   Clear
8:15 PM 52.5 °F 46.0 °F 79% 30.25 in 10.0 mi NE 9.2 mph 16.1 mph N/A   Clear
8:35 PM 51.8 °F 46.4 °F 82% 30.25 in 10.0 mi NE 6.9 mph 16.1 mph N/A   Clear
8:55 PM 51.6 °F 46.4 °F 82% 30.26 in 10.0 mi NE 8.1 mph 17.3 mph N/A   Clear
9:15 PM 51.1 °F 46.6 °F 85% 30.26 in 10.0 mi NNE 10.4 mph - N/A   Clear
9:35 PM 50.9 °F 46.6 °F 85% 30.27 in 10.0 mi NE 8.1 mph - N/A   Clear
9:55 PM 50.4 °F 46.6 °F 87% 30.26 in 10.0 mi NE 6.9 mph - N/A   Clear
10:15 PM 50.0 °F 46.6 °F 88% 30.26 in 10.0 mi NE 6.9 mph - N/A   Clear
10:35 PM 49.8 °F 46.6 °F 89% 30.26 in 10.0 mi NE 6.9 mph - N/A   Clear
10:55 PM 49.8 °F 46.9 °F 90% 30.25 in 10.0 mi NE 8.1 mph - N/A   Clear
11:15 PM 49.6 °F 46.8 °F 90% 30.24 in 10.0 mi NE 8.1 mph - N/A   Clear
11:55 PM 49.6 °F 47.3 °F 92% 30.22 in 10.0 mi NE 9.2 mph - N/A   Clear